Location: Bailen
(14.1842°N, 120.7958°E)
Time: 12:09:27
(UTC+00:00)

Lacrosse 4 Rocket - Pass Details

Date: 25 April 2026
Orbit: 506 x 567 km, 68.0° (Epoch: 12 May)

Event Time Altitude Azimuth Distance (km) Brightness Sun altitude
Exits shadow 20:51:47 13° 284° (WNW) 1,548 3.1 -11.5°
Maximum altitude 20:52:20 13° 294° (WNW) 1,531 3.1 -11.3°
Drops below altitude 10° 20:54:14 10° 323° (NW) 1,732 3.7 -10.9°
Sets 20:57:25 0° 351° (N) 2,631 4.9 -10.2°
